Regional Weather Roundup
Issued by NWS Wakefield, VA

Home | Current Version | Previous Version | Graphics & Text | Print | Product List | Glossary On
Versions: 1 2 3 4 5 6 7 8 9 10 11 12 13 14 15 16 17 18 19 20 21 22 23 24 25 26 27 28 29 30 31 32 33 34 35 36 37 38 39 40 41 42 43 44 45 46 47 48 49 50
000
ASUS41 KAKQ 121015
RWRAKQ

REGIONAL WEATHER ROUNDUP
NATIONAL WEATHER SERVICE WAKEFIELD VA
500 AM EST TUE DEC 12 2017

Note: "fair" indicates few or no clouds below 12,000 feet with no
significant weather and/or obstructions to visibility. * = Denotes
station may not report precipitation (e.g., rain,snow,etc.),
thunder or fog.

VAZ042-051-052>054-056-121100-
NORTHERN VIRGINIA

CITY           SKY/WX    TMP DP  RH WIND       PRES   REMARKS
WASH NATIONAL  CLOUDY    42  32  67 S7        29.67F
DULLES         CLOUDY    39  31  72 S9        29.64F
FORT BELVOIR   CLOUDY    40  30  68 S6        29.66F
QUANTICO       NOT AVBL
FREDERICKSBRG* CLOUDY    40  32  73 S6        29.68F
STAFFORD*      MOCLDY    38  31  76 S5        29.71F
WARRENTON      CLOUDY    41  28  60 S9        29.65F
CULPEPER*      CLOUDY    40  29  65 S6        29.66F
MANASSAS*      MOCLDY    38  30  73 S6        29.66F
LEESBURG*      MOCLDY    37  32  81 S7        29.65F
WINCHESTER     MOCLDY    36  28  75 S3        29.59F
FRONT ROYAL*   PTSUNNY   37  30  75 CALM      29.59F
LURAY*         MOSUNNY   43  32  65 W6        29.60F
$$

VAZ048-049-060>072-079>083-121100-
CENTRAL AND SOUTH CENTRAL VIRGINIA

CITY           SKY/WX    TMP DP  RH WIND       PRES   REMARKS
RICHMOND       CLOUDY    40  32  73 S10       29.70F
CHESTERFIELD*  NOT AVBL
PETERSBURG*    CLOUDY    37  30  75 S6        29.72F
HANOVER        CLOUDY    40  31  70 S8        29.71F
TAPPAHANNOCK*    N/A    N/A N/A N/A MISG        N/A
QUINTON*       FAIR      40  31  71 S6        29.70F
CHARLOTTSVILLE CLOUDY    37  29  72 S6        29.65F
GORDONSVILLE*  CLOUDY    36  31  82 SW5       29.65F
ORANGE*        CLOUDY    34  30  86 CALM      29.67F
LOUISA*        MOCLDY    38  29  70 S7        29.70F
BUMPASS*       FAIR      40  30  67 S6        29.68F
FARMVILLE*     MOCLDY    39  33  79 SW6       29.68F
CREWE*         FAIR      38  32  79 S3        29.70F
FORT PICKETT*  NOT AVBL
CHASE CITY*    FAIR      38  32  77 CALM      29.71F
CLARKSVILLE*   FAIR      37  32  81 S7        29.72F
SOUTH HILL*    CLOUDY    38  33  80 S9        29.78F
LAWRENCEVILLE* FAIR      40  32  73 S6        29.72F
EMPORIA*       CLOUDY    37  32  81 CALM      29.76F
$$

VAZ088>098-121100-
SOUTHEAST VIRGINIA

CITY           SKY/WX    TMP DP  RH WIND       PRES   REMARKS
NORFOLK        MOCLDY    41  33  73 S10       29.77F
VIRGINIA BEACH PTCLDY    41  31  67 S9        29.78F
NORFOLK NAVAL  MOCLDY    43  31  62 S13       29.77F
WEST POINT*    PTCLDY   N/A N/A N/A SE7       29.73F
SALUDA*        FAIR      42  33  70 S8        29.72F
NEWPORT NEWS   CLOUDY    44  31  60 S16       29.75F
LANGLEY AFB    PTCLDY    43  32  66 SW10      29.75F
FORT EUSTIS    CLOUDY    42  32  66 S9        29.72F
WILLIAMSBURG*  CLOUDY    43  34  70 S13       29.74F
HR EXEC AP*    FAIR      38  32  79 S7        29.77F
FRANKLIN*      CLOUDY    38  31  77 S9        29.77F
US460-WAKEFLD  MOCLDY    39  31  72 S7        29.73F
$$

VAZ020-022-025-037-045-121100-
WEST CENTRAL AND SOUTHWEST VIRGINIA

CITY           SKY/WX    TMP DP  RH WIND       PRES   REMARKS
STAUNTON*      PTCLDY    35  28  76 S6        29.64F
WAYNESBORO*    PTSUNNY   39  29  66 S5        29.62F
HOT SPRINGS VA CLOUDY    38  24  56 W18G29    29.58F
LYNCHBURG      CLOUDY    35  29  78 SW3       29.68F
DANVILLE       PTCLDY    33  30  88 SW3       29.73F
SOUTH BOSTON*  FAIR      35  30  80 CALM      29.72S
MARTINSVILLE   PTCLDY    28  26  93 CALM      29.73F
ROANOKE        CLOUDY    40  29  64 CALM      29.69F
BLACKSBURG     CLEAR     33  28  81 CALM      29.70F
DUBLIN*        CLEAR     38  30  72 CALM      29.69F
MARION*        CLOUDY    40  28  64 W22       29.70F
HILLSVILLE*    CLOUDY    38  28  67 W8        29.67F
RICHLANDS*     CLOUDY    40  10  29 W10G22    29.71F
WISE*          CLOUDY    39  28  65 W13       29.75F
ABINGDON*      CLOUDY    39  32  74 W6        29.75F
$$

MDZ021>025-VAZ099-100-121100-
SOUTHERN MARYLAND AND THE DELMARVA PENINSULA

CITY           SKY/WX    TMP DP  RH WIND       PRES   REMARKS
PATUXENT RIVER PTCLDY    44  33  65 S8        29.69F
BAY BRIDGE APT CLOUDY    45  34  65 S14       29.68F
LEONARDTOWN    PTCLDY    43  32  65 CALM      29.70F
DOVER          CLOUDY    41  39  92 SE10      29.70F
GEORGETOWN     PTCLDY    42  35  76 S9        29.73F
EASTON         PTCLDY    44  37  76 S10       29.73F
CAMBRIDGE      PTCLDY    43  37  81 SE10      29.71F
SALISBURY      CLOUDY    41  35  79 S9        29.73F
OCEAN CITY     CLOUDY    46  39  76 SW9       29.76F
WALLOPS ISLAND CLOUDY    45  37  73 S14       29.76F
ACCOMACK*      PTCLDY    45  36  72 S9G16     29.76F
$$

NCZ012>017-030>032-121100-
NORTH CENTRAL AND EASTERN NORTH CAROLINA

CITY           SKY/WX    TMP DP  RH WIND       PRES   REMARKS
ROANOKE RAPIDS FAIR      37  32  81 CALM      29.76F
RALEIGH        CLOUDY    40  33  76 SW10      29.75F
ELIZABETH CITY CLOUDY    41  37  86 S6        29.80F
AHOSKIE*       PTCLDY    35  31  84 S5        29.78F
EDENTON*       CLOUDY    42  36  78 S8        29.81F
CURRITUCK*     CLOUDY    37  37  97 CALM      29.81F
KILL DEVIL HLS CLOUDY    42  36  79 CALM      29.81F
MANTEO         CLOUDY    43  35  74 SW10      29.83F
CAPE HATTERAS  CLEAR     51  42  71 SW12G20   29.85F
TARBORO*       NOT AVBL
GOLDSBORO      CLEAR     41  34  75 S5        29.78F
WASHINGTON     CLEAR     39  33  79 S5        29.81F
GREENVILLE     CLEAR     41  34  75 SW9       29.82F
NEW BERN       CLEAR     42  38  85 SW9       29.84F
WILMINGTON     CLEAR     49  40  71 SW9       29.85F
$$

VAZ048-121100-
ELSEWHERE

CITY           SKY/WX    TMP DP  RH WIND       PRES   REMARKS
HARRISBURG PA  CLOUDY    37  32  82 SE6       29.62F
BALTIMORE      CLOUDY    40  32  73 S6        29.65F
ANNAPOLIS      CLOUDY    43  35  73 S7        29.66F
ANDREWS AFB    CLOUDY    41  30  65 S10       29.65F
PHILADELPHIA   CLOUDY    43  34  70 S12       29.71F
HENDERSON NC   CLOUDY    37  30  75 SW9       29.73F
GREENSBORO     MOCLDY    38  33  82 SW8       29.72F
ROCKY MOUNT    CLOUDY    40  34  79 S8        29.77F
$$

VAZ100-121100-
MARINE

STATION/POSITION TIME  TEMP    WIND        PRES    WAVE   SWELL
                       AIR SEA DIR/SP/G            HT/PER HT/PER
                 (UTC) (F)     (DEG/KT/KT) (MB)    (FT/S) (FT/S)
BRANDYWINE LGT   0936   48     180/ 23/ 27 1007.1F
CAPE MAY NJ      0948   48 44  180/ 11/ 19 1006.5F
LEWES DE         0948   46 47  180/  8/ 12 1006.7F
15NM E FENWICK I 0950   51 53  190/ 17/ 19 1008.1F   4/ 5   2/ 8
OCEAN-CITY-INLET 0936   49 49  210/ 15/ 17 1008.2F
WACHAPREAGUE VA  0948   45 43  200/  8/ 11 1007.9F
THOMAS POINT MD  1000   45 47  190/ 21/ 23   N/A
GOOSES REEF MD   1000   45 47  180/ 16/ 17 1005.7    2/ 3
COVE POINT MD    0948   44     200/ 15/ 18 1006.0F
SOLOMONS ISLAND  0936   44 48  190/ 11/ 15 1005.5F
BISHOPS HEAD MD  0948   45 42  170/ 12/ 16 1006.3F
PINEY POINT MD   0948          200/ 11/ 13   N/A
POTOMAC MD       1000   46 48  180/ 14/ 17 1005.2    2/ 3
CAMBRIDGE MD     0936   43 45              1006.6F
LEWISETTA VA     0936   43 44  210/ 11/ 12 1005.9F
RAPPAHANNOCK LGT 0948          180/ 21/ 24 1007.9F
STINGRAY PT      1000   45 48  210/ 16/ 17 1006.9    2/ 3
YORK RVR RNG VA  0948   45     200/ 13/ 15 1007.8F
YORKTOWN VA      0948   45 49  190/  8/ 11 1006.8F
JAMESTOWN VA     1000      47  170/  8/ 12   N/A
DOMINION TERM VA 0942   42     180/  9/ 11 1008.1F
KIPTOPEKE VA     0948      48  200/ 14/ 17   N/A
CAPE HENRY VA    0948   43     190/  9/ 14   N/A
WILLOUBY STN VA  0942                      1007.5F
S CRANEY ISL VA  0948   42     190/  9/ 12 1008.0F
CAPE HENRY BUOY  0930      53                N/A     3/ 4
1ST LANDING BUOY 1000   45 50  210/ 17/ 21 1008.2    1/ 2
CAPE CHARLES BUO 0951      53                N/A     3/ 4
64NM E OF VA BCH 0950   55 60  230/ 16/ 21 1009.3F   3/ 8   2/ 8
DUCK PIER NC     0948   45 55  210/ 10/ 13 1009.0F
44100 DUCK FRF   0945      55                N/A     2/10
44056 DUCK FRF   0930      54                N/A     1/ 9
OREGON INLET NC  0942   47 46  220/ 11/ 13 1010.1F
HATTERAS NC      0948   51 53  230/ 11/ 16 1010.5F
DIAMOND SHLS NC  0950   60 75  250/ 19/ 25 1010.9F   3/ 9   2/ 9
CAPE LOOKOUT NC  1000          230/ 12/ 18 1011.1F
$$



USA.gov is the U.S. government's official web portal to all federal, state and local government web resources and services.